When you browse on this site, cookies collect data to enhance your experience and personalize the content and advertising you see.
Visit our Privacy Policy to learn more. By continuing to use the site, you agree to this use of cookies and data.
  • en Suisse
  • Liste des pays
  • À 7 jours
  • Température de l'eau
  • Carte météo
  • Widgets météo
  • user-avatar
    Se connecter

    Météo par heure à Shvarcevskiy

    Ce jour, 24 Août, Samedi

    Heure Température Précipitation Vent Pression Humidité
    00:00 +15°C° 0 mm 2 m/s 749 mmHg 82%
    01:00 +14°C° 0 mm 1 m/s 749 mmHg 82%
    02:00 +14°C° 0 mm 1 m/s 749 mmHg 83%
    03:00 +14°C° 0 mm 1 m/s 749 mmHg 84%
    04:00 +13°C° 0 mm 1 m/s 749 mmHg 84%
    05:00 +13°C° 0 mm 1 m/s 749 mmHg 85%
    06:00 +13°C° 0 mm 1 m/s 749 mmHg 85%
    07:00 +14°C° 0 mm 0 m/s 749 mmHg 80%
    08:00 +16°C° 0 mm 0 m/s 749 mmHg 75%
    09:00 +18°C° 0 mm 0 m/s 749 mmHg 69%
    10:00 +21°C° 0 mm 1 m/s 749 mmHg 65%
    11:00 +22°C° 0 mm 1 m/s 749 mmHg 60%
    12:00 +23°C° 0 mm 2 m/s 748 mmHg 56%
    13:00 +23°C° 0 mm 2 m/s 748 mmHg 54%
    14:00 +24°C° 0 mm 2 m/s 748 mmHg 53%
    15:00 +24°C° 0 mm 3 m/s 748 mmHg 51%
    16:00 +22°C° 0 mm 3 m/s 747 mmHg 56%
    17:00 +22°C° 0 mm 3 m/s 747 mmHg 61%
    18:00 +21°C° 0 mm 3 m/s 746 mmHg 65%
    19:00 +20°C° 0 mm 2 m/s 746 mmHg 69%
    20:00 +18°C° 0 mm 2 m/s 746 mmHg 72%
    21:00 +17°C° 0 mm 2 m/s 747 mmHg 75%
    22:00 +16°C° 0 mm 2 m/s 746 mmHg 77%
    23:00 +16°C° 0 mm 3 m/s 746 mmHg 80%

    Demain, 25 Août, Dimanche

    Heure Température Précipitation Vent Pression Humidité
    00:00 +14°C° 0 mm 3 m/s 746 mmHg 82%
    01:00 +14°C° 0 mm 3 m/s 746 mmHg 85%
    02:00 +14°C° 0 mm 3 m/s 746 mmHg 88%
    03:00 +14°C° 0 mm 3 m/s 746 mmHg 91%
    04:00 +13°C° 0 mm 3 m/s 746 mmHg 92%
    05:00 +13°C° 0 mm 3 m/s 746 mmHg 93%
    06:00 +13°C° 0 mm 3 m/s 746 mmHg 94%
    07:00 +14°C° 0 mm 3 m/s 747 mmHg 86%
    08:00 +15°C° 0 mm 4 m/s 747 mmHg 79%
    09:00 +18°C° 0 mm 4 m/s 747 mmHg 72%
    10:00 +19°C° 0 mm 4 m/s 747 mmHg 68%
    11:00 +19°C° 0 mm 4 m/s 748 mmHg 64%
    12:00 +20°C° 0 mm 4 m/s 748 mmHg 61%
    13:00 +20°C° 0 mm 4 m/s 748 mmHg 60%
    14:00 +21°C° 0 mm 4 m/s 748 mmHg 60%
    15:00 +21°C° 0 mm 4 m/s 748 mmHg 59%
    16:00 +20°C° 0 mm 4 m/s 748 mmHg 63%
    17:00 +20°C° 0 mm 3 m/s 748 mmHg 66%
    18:00 +20°C° 0 mm 2 m/s 748 mmHg 70%
    19:00 +18°C° 0 mm 2 m/s 749 mmHg 73%
    20:00 +17°C° 0 mm 2 m/s 749 mmHg 76%
    21:00 +15°C° 0 mm 2 m/s 749 mmHg 79%
    22:00 +15°C° 0 mm 2 m/s 749 mmHg 81%
    23:00 +14°C° 0 mm 2 m/s 750 mmHg 83%

    Après-demain, 26 Août, Lundi

    Heure Température Précipitation Vent Pression Humidité
    00:00 +13°C° 0 mm 2 m/s 750 mmHg 85%
    01:00 +13°C° 0 mm 1 m/s 750 mmHg 87%
    02:00 +12°C° 0 mm 1 m/s 750 mmHg 88%
    03:00 +12°C° 0 mm 1 m/s 750 mmHg 89%
    04:00 +12°C° 0 mm 1 m/s 750 mmHg 89%
    05:00 +11°C° 0 mm 0 m/s 750 mmHg 89%
    06:00 +11°C° 0 mm 0 m/s 750 mmHg 89%
    07:00 +12°C° 0 mm 0 m/s 750 mmHg 82%
    08:00 +14°C° 0 mm 0 m/s 750 mmHg 76%
    09:00 +16°C° 0 mm 0 m/s 751 mmHg 70%
    10:00 +17°C° 0 mm 0 m/s 751 mmHg 66%
    11:00 +18°C° 0 mm 0 m/s 750 mmHg 62%
    12:00 +20°C° 0 mm 0 m/s 750 mmHg 58%
    13:00 +22°C° 0 mm 1 m/s 750 mmHg 56%
    14:00 +22°C° 0 mm 1 m/s 750 mmHg 55%
    15:00 +21°C° 0 mm 2 m/s 749 mmHg 54%
    16:00 +21°C° 0 mm 2 m/s 749 mmHg 58%
    17:00 +20°C° 0 mm 2 m/s 748 mmHg 61%
    18:00 +20°C° 0 mm 2 m/s 748 mmHg 65%
    19:00 +19°C° 0 mm 2 m/s 748 mmHg 68%
    20:00 +17°C° 0 mm 2 m/s 748 mmHg 71%
    21:00 +16°C° 0 mm 2 m/s 747 mmHg 74%
    22:00 +15°C° 0 mm 2 m/s 747 mmHg 75%
    23:00 +15°C° 0 mm 2 m/s 747 mmHg 76%

    27 Août, Mardi

    Heure Température Précipitation Vent Pression Humidité
    00:00 +14°C° 0 mm 3 m/s 747 mmHg 78%
    01:00 +13°C° 0 mm 3 m/s 746 mmHg 79%
    02:00 +13°C° 0 mm 3 m/s 746 mmHg 80%
    03:00 +13°C° 0 mm 3 m/s 746 mmHg 81%
    04:00 +13°C° 0 mm 3 m/s 745 mmHg 83%
    05:00 +13°C° 0 mm 3 m/s 745 mmHg 84%
    06:00 +13°C° 0 mm 4 m/s 745 mmHg 86%
    07:00 +14°C° 0 mm 4 m/s 744 mmHg 83%
    08:00 +15°C° 0 mm 4 m/s 744 mmHg 80%
    09:00 +17°C° 0 mm 5 m/s 744 mmHg 76%
    10:00 +19°C° 0 mm 5 m/s 743 mmHg 72%
    11:00 +20°C° 0 mm 5 m/s 743 mmHg 68%
    12:00 +22°C° 0 mm 6 m/s 743 mmHg 64%
    13:00 +21°C° 0.6 mm 6 m/s 742 mmHg 65%
    14:00 +21°C° 0.6 mm 6 m/s 742 mmHg 67%
    15:00 +21°C° 0.6 mm 7 m/s 741 mmHg 68%
    16:00 +20°C° 0.3 mm 6 m/s 741 mmHg 71%
    17:00 +19°C° 0.3 mm 6 m/s 741 mmHg 73%
    18:00 +19°C° 0.3 mm 6 m/s 741 mmHg 76%
    19:00 +16°C° 0 mm 5 m/s 741 mmHg 77%
    20:00 +15°C° 0 mm 5 m/s 742 mmHg 78%
    21:00 +13°C° 0 mm 5 m/s 742 mmHg 79%
    22:00 +12°C° 0 mm 5 m/s 743 mmHg 79%
    23:00 +10°C° 0 mm 5 m/s 743 mmHg 79%

    28 Août, Mercredi

    Heure Température Précipitation Vent Pression Humidité
    00:00 +9°C° 0 mm 5 m/s 744 mmHg 79%
    01:00 +8°C° 0 mm 5 m/s 744 mmHg 79%
    02:00 +7°C° 0 mm 4 m/s 744 mmHg 79%
    03:00 +5°C° 0 mm 4 m/s 744 mmHg 80%
    04:00 +5°C° 0 mm 4 m/s 745 mmHg 80%
    05:00 +5°C° 0 mm 4 m/s 745 mmHg 79%
    06:00 +4°C° 0 mm 3 m/s 745 mmHg 79%
    07:00 +6°C° 0 mm 4 m/s 746 mmHg 76%
    08:00 +7°C° 0 mm 5 m/s 746 mmHg 72%
    09:00 +8°C° 0 mm 6 m/s 746 mmHg 68%
    10:00 +10°C° 0 mm 6 m/s 746 mmHg 64%
    11:00 +11°C° 0 mm 6 m/s 746 mmHg 60%
    12:00 +13°C° 0 mm 6 m/s 746 mmHg 55%
    13:00 +12°C° 0 mm 7 m/s 746 mmHg 53%
    14:00 +12°C° 0 mm 7 m/s 745 mmHg 52%
    15:00 +14°C° 0 mm 7 m/s 745 mmHg 50%
    16:00 +13°C° 0 mm 6 m/s 745 mmHg 54%
    17:00 +12°C° 0 mm 5 m/s 746 mmHg 58%
    18:00 +12°C° 0 mm 4 m/s 746 mmHg 62%
    19:00 +11°C° 0 mm 4 m/s 746 mmHg 64%
    20:00 +8°C° 0 mm 4 m/s 746 mmHg 67%
    21:00 +7°C° 0 mm 4 m/s 746 mmHg 70%
    22:00 +7°C° 0 mm 3 m/s 747 mmHg 72%
    23:00 +7°C° 0 mm 3 m/s 747 mmHg 74%

    29 Août, Jeudi

    Heure Température Précipitation Vent Pression Humidité
    00:00 +5°C° 0 mm 3 m/s 747 mmHg 77%
    01:00 +5°C° 0 mm 3 m/s 747 mmHg 78%
    02:00 +4°C° 0 mm 3 m/s 747 mmHg 80%
    03:00 +4°C° 0 mm 3 m/s 747 mmHg 81%
    04:00 +4°C° 0 mm 3 m/s 747 mmHg 82%
    05:00 +4°C° 0 mm 3 m/s 747 mmHg 83%
    06:00 +3°C° 0 mm 3 m/s 747 mmHg 84%
    07:00 +5°C° 0 mm 4 m/s 747 mmHg 79%
    08:00 +7°C° 0 mm 4 m/s 747 mmHg 73%
    09:00 +10°C° 0 mm 4 m/s 747 mmHg 68%
    10:00 +10°C° 0 mm 5 m/s 747 mmHg 64%
    11:00 +12°C° 0 mm 5 m/s 747 mmHg 60%
    12:00 +13°C° 0 mm 5 m/s 747 mmHg 57%
    13:00 +14°C° 0 mm 5 m/s 746 mmHg 55%
    14:00 +14°C° 0 mm 5 m/s 746 mmHg 53%
    15:00 +15°C° 0 mm 5 m/s 746 mmHg 52%
    16:00 +14°C° 0 mm 5 m/s 746 mmHg 55%
    17:00 +13°C° 0 mm 5 m/s 746 mmHg 59%
    18:00 +12°C° 0 mm 4 m/s 746 mmHg 63%
    19:00 +10°C° 0 mm 4 m/s 746 mmHg 68%
    20:00 +8°C° 0 mm 4 m/s 746 mmHg 73%
    21:00 +7°C° 0 mm 3 m/s 746 mmHg 78%
    22:00 +7°C° 0 mm 3 m/s 747 mmHg 81%
    23:00 +5°C° 0 mm 3 m/s 747 mmHg 83%
    Voir plus